[Date Prev][Date Next][Thread Prev][Thread Next] - [Date Index][Thread Index][Author Index]

2 Line ISS Keps 1-8



ISS
1 25544U 98067A   06008.02467628  .00013772  00000-0  99193-4 0  1109
2 25544 051.6442 290.9569 0010871 128.3648 340.1275 15.73853868407921
----
Via the sarex mailing list at AMSAT.ORG courtesy of AMSAT-NA.
To unsubscribe, send "unsubscribe sarex" to Majordomo@amsat.org



AMSAT Top AMSAT Home